Location: Schommer Observatory
(40.5200°N, 74.4500°W)
Time: 16:56:15
(UTC-05:00)

ISS - Pass Details

Date: 12 November 2017
Orbit: 402 x 407 km, 51.6° (Epoch: 23 November)

Event Time Altitude Azimuth Distance (km) Brightness Sun altitude
Exits shadow 06:03:00 - 318° (NW) 1,677 -1.2 -7.6°
Reaches altitude 10° 06:03:35 10° 322° (NW) 1,456 -1.5 -7.5°
Maximum altitude 06:06:34 32° 28° (NNE) 711 -2.5 -7.0°
Drops below altitude 10° 06:09:33 10° 94° (E) 1,451 0.6 -6.4°
Sets 06:11:45 0° 105° (ESE) 2,308 2.8 -6.0°
